GW3736 Weather Reports


time (UTC)temp
C
wind
direction
speed
KPH
gust
KPH
rain 1hr
cm
rain 24hr
cm
rain mn
cm
humidity
%
barometer
mb
20260906223527 23 145 1.6 11.3 0.00 0.00 0.00 62 1015.3
20260906222524 23 168 1.6 6.4 0.00 0.00 0.00 61 1015.2
20260906221541 23 169 1.6 9.7 0.00 0.00 0.00 60 1015.0
20260906220519 23 223 3.2 9.7 0.00 0.00 0.00 60 1015.1
20260906215535 23 160 1.6 4.8 0.00 0.00 0.00 58 1015.1
20260906214532 23 164 1.6 6.4 0.00 0.00 0.00 58 1015.0
20260906213529 23 135 4.8 14.5 0.00 0.00 0.00 57 1015.1
20260906212525 23 178 3.2 9.7 0.00 0.00 0.00 57 1015.2
20260906211542 23 158 3.2 9.7 0.00 0.00 0.00 56 1015.2
20260906210519 23 156 1.6 9.7 0.00 0.00 0.00 57 1015.2
20260906205516 23 176 3.2 6.4 0.00 0.00 0.00 57 1015.2
20260906204533 23 152 3.2 6.4 0.00 0.00 0.00 56 1015.1
20260906203530 23 144 3.2 11.3 0.00 0.00 0.00 56 1015.0
20260906202527 24 157 3.2 11.3 0.00 0.00 0.00 56 1015.1
20260906201524 24 207 3.2 11.3 0.00 0.00 0.00 56 1015.0
20260906200521 24 197 1.6 3.2 0.00 0.00 0.00 57 1015.0
20260906195538 24 173 3.2 11.3 0.00 0.00 0.00 56 1014.9
20260906194515 24 137 4.8 14.5 0.00 0.00 0.00 57 1015.0
20260906193532 24 133 4.8 12.9 0.00 0.00 0.00 56 1015.2
20260906192549 24 151 4.8 11.3 0.00 0.00 0.00 55 1015.2
20260906191526 24 174 3.2 9.7 0.00 0.00 0.00 55 1015.2
20260906190543 24 148 3.2 11.3 0.00 0.00 0.00 55 1015.2
20260906185540 24 193 3.2 11.3 0.00 0.00 0.00 56 1015.3
20260906184517 24 142 4.8 11.3 0.00 0.00 0.00 55 1015.5
20260906183534 24 145 4.8 14.5 0.00 0.00 0.00 55 1015.4
20260906182531 24 147 4.8 14.5 0.00 0.00 0.00 55 1015.5
20260906181548 24 150 4.8 14.5 0.00 0.00 0.00 56 1015.5
20260906180525 24 159 4.8 14.5 0.00 0.00 0.00 55 1015.7
20260906175522 24 150 4.8 16.1 0.00 0.00 0.00 56 1015.7
20260906174539 23 187 4.8 12.9 0.00 0.00 0.00 56 1015.8
20260906173516 24 205 1.6 6.4 0.00 0.00 0.00 58 1015.9
20260906172533 23 175 3.2 11.3 0.00 0.00 0.00 58 1015.9
20260906171530 23 206 6.4 16.1 0.00 0.00 0.00 59 1015.9
20260906170526 24 215 4.8 12.9 0.00 0.00 0.00 60 1016.2
20260906165545 23 153 4.8 14.5 0.00 0.00 0.00 61 1016.1
20260906164540 23 151 4.8 12.9 0.00 0.00 0.00 61 1016.1
20260906163517 23 167 3.2 16.1 0.00 0.00 0.00 64 1016.0
20260906162614 23 179 4.8 12.9 0.00 0.00 0.00 65 1016.1
20260906161531 23 163 1.6 6.4 0.00 0.00 0.00 66 1016.1
20260906160528 23 173 3.2 11.3 0.00 0.00 0.00 66 1016.1
20260906155525 23 186 3.2 6.4 0.00 0.00 0.00 68 1016.0
20260906154602 23 199 3.2 9.7 0.00 0.00 0.00 69 1016.0
20260906153519 22 169 3.2 11.3 0.00 0.00 0.00 71 1016.0
20260906152536 22 153 4.8 12.9 0.00 0.00 0.00 71 1015.8
20260906151533 22 198 3.2 9.7 0.00 0.00 0.00 72 1015.6
20260906150529 22 178 3.2 9.7 0.00 0.00 0.00 72 1015.6
20260906145526 22 182 4.8 11.3 0.00 0.00 0.00 74 1015.7
20260906144523 21 209 3.2 11.3 0.00 0.00 0.00 75 1015.6
20260906143520 21 200 3.2 9.7 0.00 0.00 0.00 77 1015.7
20260906142517 21 206 3.2 11.3 0.00 0.00 0.00 79 1015.6
20260906141554 21 221 1.6 9.7 0.00 0.00 0.00 80 1015.3
20260906140531 21 217 3.2 9.7 0.00 0.00 0.00 81 1015.4
20260906135528 20 202 3.2 12.9 0.00 0.00 0.00 82 1015.4
20260906134524 20 198 3.2 14.5 0.00 0.00 0.00 84 1015.4
20260906133521 20 194 1.6 6.4 0.00 0.00 0.00 85 1015.3
20260906132519 19 188 1.6 6.4 0.00 0.00 0.00 86 1015.2
20260906131515 19 187 1.6 4.8 0.00 0.00 0.00 87 1015.2
20260906130532 18 195 1.6 6.4 0.00 0.00 0.00 87 1015.3
20260906125529 18 189 1.6 4.8 0.00 0.00 0.00 87 1015.3
20260906124546 18 187 1.6 6.4 0.00 0.00 0.00 87 1015.3
20260906123523 17 188 1.6 6.4 0.00 0.00 0.00 87 1015.2
20260906122520 17 197 0.0 3.2 0.00 0.00 0.00 87 1015.1
20260906121517 17 183 1.6 4.8 0.00 0.00 0.00 87 1015.0
20260906120534 17 188 1.6 4.8 0.00 0.00 0.00 87 1015.0
20260906115531 17 194 1.6 4.8 0.00 0.00 0.00 87 1014.8
20260906114528 17 199 1.6 4.8 0.00 0.00 0.00 87 1014.6
20260906113525 16 195 1.6 11.3 0.00 0.00 0.00 87 1014.4
20260906112522 16 181 0.0 4.8 0.00 0.00 0.00 87 1014.5
20260906111519 16 200 0.0 3.2 0.00 0.00 0.00 86 1014.4
20260906110515 16 204 1.6 6.4 0.00 0.00 0.00 86 1014.3
20260906105553 16 201 0.0 3.2 0.00 0.00 0.00 86 1014.1
20260906104610 16 200 1.6 3.2 0.00 0.00 0.00 86 1014.0
20260906103526 16 200 0.0 3.2 0.00 0.00 0.00 85 1014.1
20260906102625 16 200 1.6 3.2 0.00 0.00 0.00 85 1013.9
20260906101520 16 200 1.6 4.8 0.00 0.00 0.00 85 1014.0
20260906100517 15 200 1.6 3.2 0.00 0.00 0.00 85 1014.0
20260906095534 15 199 1.6 4.8 0.00 0.00 0.00 85 1014.0
20260906094551 15 198 1.6 3.2 0.00 0.00 0.00 85 1013.9
20260906093528 16 199 1.6 4.8 0.00 0.00 0.00 85 1013.9
20260906092525 16 201 3.2 6.4 0.00 0.00 0.00 85 1013.8
20260906091522 16 200 1.6 3.2 0.00 0.00 0.00 84 1013.8
20260906090519 16 200 1.6 3.2 0.00 0.00 0.00 84 1013.8
20260906085516 16 199 1.6 3.2 0.00 0.00 0.00 84 1013.7
20260906084533 16 198 1.6 4.8 0.00 0.00 0.00 83 1013.7
20260906083530 17 195 1.6 3.2 0.00 0.00 0.00 84 1013.7
20260906082527 17 198 1.6 4.8 0.00 0.00 0.00 84 1013.7
20260906081524 17 197 1.6 6.4 0.00 0.00 0.00 84 1013.7
20260906080541 17 195 1.6 4.8 0.00 0.00 0.00 84 1013.6
20260906075517 17 193 1.6 9.7 0.00 0.00 0.00 84 1013.5
20260906074534 17 191 1.6 3.2 0.00 0.00 0.00 84 1013.6
20260906073531 17 195 1.6 9.7 0.00 0.00 0.00 84 1013.4
20260906072528 17 191 1.6 6.4 0.00 0.00 0.00 84 1013.3
20260906071525 17 200 1.6 6.4 0.00 0.00 0.00 84 1013.2
20260906070522 17 190 1.6 6.4 0.00 0.00 0.00 84 1013.3
20260906065519 17 196 0.0 3.2 0.00 0.00 0.00 83 1013.3
20260906064536 17 202 1.6 6.4 0.00 0.00 0.00 83 1013.3
20260906063533 16 201 0.0 4.8 0.00 0.00 0.00 82 1013.3
20260906062530 16 197 1.6 4.8 0.00 0.00 0.00 82 1013.3
20260906061548 16 193 1.6 4.8 0.00 0.00 0.00 82 1013.4
20260906060523 16 195 1.6 3.2 0.00 0.00 0.00 81 1013.3
20260906055520 16 200 1.6 4.8 0.00 0.00 0.00 80 1013.3
20260906054517 16 194 1.6 4.8 0.00 0.00 0.00 80 1013.3
20260906053534 16 196 1.6 4.8 0.00 0.00 0.00 79 1013.4
20260906052531 16 198 3.2 6.4 0.00 0.00 0.00 79 1013.5
20260906051528 16 199 3.2 6.4 0.00 0.00 0.00 79 1013.5
20260906050545 16 196 1.6 6.4 0.00 0.00 0.00 78 1013.2
20260906045541 16 194 1.6 3.2 0.00 0.00 0.00 78 1013.1
20260906044518 17 197 3.2 9.7 0.00 0.00 0.00 77 1013.0
20260906043515 17 191 1.6 4.8 0.00 0.00 0.00 77 1013.2
20260906042532 17 195 1.6 4.8 0.00 0.00 0.00 77 1013.1
20260906041529 17 190 1.6 3.2 0.00 0.00 0.00 76 1013.0
20260906040547 17 195 1.6 4.8 0.00 0.00 0.00 76 1013.1
20260906035523 17 198 1.6 4.8 0.00 0.00 0.00 76 1013.2
20260906034519 17 202 3.2 9.7 0.00 0.00 0.00 75 1013.2
20260906033537 17 207 3.2 4.8 0.00 0.00 0.00 75 1013.0
20260906032533 17 201 1.6 3.2 0.00 0.00 0.00 74 1012.8
20260906031531 17 216 1.6 3.2 0.00 0.00 0.00 74 1012.8
20260906030527 18 280 3.2 9.7 0.00 0.00 0.00 74 1013.0
20260906025524 18 320 3.2 6.4 0.00 0.00 0.00 74 1013.0
20260906024521 18 322 1.6 6.4 0.00 0.00 0.00 73 1013.0
20260906023538 18 324 3.2 9.7 0.00 0.00 0.00 73 1013.1
20260906022535 18 333 1.6 4.8 0.00 0.00 0.00 73 1013.0
20260906021530 18 330 3.2 11.3 0.00 0.00 0.00 72 1013.1
20260906020525 19 331 3.2 9.7 0.00 0.00 0.00 71 1013.0
20260906015520 19 353 1.6 6.4 0.00 0.00 0.00 71 1013.0
20260906014517 19 352 4.8 12.9 0.00 0.00 0.00 71 1013.1
20260906013534 19 328 3.2 9.7 0.00 0.00 0.00 71 1012.9
20260906012532 20 327 1.6 6.4 0.00 0.00 0.00 70 1012.8
20260906011526 20 3 1.6 4.8 0.00 0.00 0.00 70 1012.5
20260906010522 20 353 1.6 4.8 0.00 0.00 0.00 70 1012.5
20260906005538 20 358 3.2 9.7 0.00 0.00 0.00 69 1012.5
20260906004515 20 358 3.2 11.3 0.00 0.00 0.00 69 1012.5
20260906003532 20 358 3.2 9.7 0.00 0.00 0.00 68 1012.3
20260906002529 21 351 3.2 11.3 0.00 0.00 0.00 68 1012.0
20260906001525 21 357 3.2 12.9 0.00 0.00 0.00 67 1012.0
20260906000539 21 7 3.2 9.7 0.00 0.00 0.00 66 1011.8
20260905235533 21 349 3.2 12.9 0.00 0.00 0.00 64 1012.0
20260905234551 22 359 3.2 9.7 0.00 0.00 0.00 65 1011.9
20260905233527 22 1 3.2 9.7 0.00 0.00 0.00 64 1012.1
20260905232524 22 3 1.6 9.7 0.00 0.00 0.00 63 1012.0
20260905231520 22 355 3.2 9.7 0.00 0.00 0.00 62 1012.0
20260905230515 22 357 4.8 14.5 0.00 0.00 0.00 60 1011.8
20260905225531 23 12 4.8 16.1 0.00 0.00 0.00 60 1011.9
20260905224527 23 19 3.2 12.9 0.00 0.00 0.00 60 1011.6